2023/03/09 00:00:00,20.4, 1.9
2023/03/09 00:10:00,20.4, 1.5
2023/03/09 00:20:00,20.5, 2.2
2023/03/09 00:30:00,20.5, 1.8
2023/03/09 00:40:00,20.4, 1.8
2023/03/09 00:50:00,20.4, 1.8
2023/03/09 01:00:00,20.4, 1.8
2023/03/09 01:10:00,20.3, 1.8
2023/03/09 01:20:00,20.3, 1.9
2023/03/09 01:30:00,20.3, 1.7
2023/03/09 01:40:00,20.4, 1.8
2023/03/09 01:50:00,20.5, 1.8
2023/03/09 02:00:00,20.4, 2.0
2023/03/09 02:10:00,20.4, 1.6
2023/03/09 02:20:00,20.4, 1.8
2023/03/09 02:30:00,20.5, 1.4
2023/03/09 02:40:00,20.4, 1.6
2023/03/09 02:50:00,20.3, 1.4
2023/03/09 03:00:00,20.3, 1.1
2023/03/09 03:10:00,20.3, 1.2
2023/03/09 03:20:00,20.2, 1.3
2023/03/09 03:30:00,20.2, 1.9
2023/03/09 03:40:00,20.2, 1.4
2023/03/09 03:50:00,20.2, 2.0
2023/03/09 04:00:00,20.3, 2.0
2023/03/09 04:10:00,20.3, 1.4
2023/03/09 04:20:00,20.3, 1.9
2023/03/09 04:30:00,20.2, 2.1
2023/03/09 04:40:00,20.1, 2.4
2023/03/09 04:50:00,20.1, 2.0
2023/03/09 05:00:00,20.0, 2.2
2023/03/09 05:10:00,20.1, 2.3
2023/03/09 05:20:00,20.1, 2.0
2023/03/09 05:30:00,20.1, 2.3
2023/03/09 05:40:00,20.1, 2.1
2023/03/09 05:50:00,20.1, 2.1
2023/03/09 06:00:00,20.0, 1.9
2023/03/09 06:10:00,20.0, 2.2
2023/03/09 06:20:00,20.0, 2.2
2023/03/09 06:30:00,20.0, 1.9
2023/03/09 06:40:00,20.0, 2.4
2023/03/09 06:50:00,20.1, 2.4
2023/03/09 07:00:00,20.0, 2.6
2023/03/09 07:10:00,20.0, 2.9
2023/03/09 07:20:00,20.0, 3.3
2023/03/09 07:30:00,20.0, 3.2
2023/03/09 07:40:00,20.0, 3.1
2023/03/09 07:50:00,19.9, 3.3
2023/03/09 08:00:00,19.8, 3.9
2023/03/09 08:10:00,19.8, 4.0
2023/03/09 08:20:00,20.1, 3.7
2023/03/09 08:30:00,20.2, 3.5
2023/03/09 08:40:00,20.2, 3.8
2023/03/09 08:50:00,20.2, 4.4
2023/03/09 09:00:00,19.9, 5.0
2023/03/09 09:10:00,19.8, 5.9
2023/03/09 09:20:00,19.7, 7.2
2023/03/09 09:30:00,19.7, 8.8
2023/03/09 09:40:00,19.7, 9.6
2023/03/09 09:50:00,19.8,10.6
2023/03/09 10:00:00,19.8,11.3
2023/03/09 10:10:00,19.8,11.0
2023/03/09 10:20:00,19.8,11.0
2023/03/09 10:30:00,19.5,11.1
2023/03/09 10:40:00,19.5,10.6
2023/03/09 10:50:00,19.5,10.3
2023/03/09 11:00:00,19.7,11.8
2023/03/09 11:10:00,19.4,11.2
2023/03/09 11:20:00,19.5,11.3
2023/03/09 11:30:00,19.4,11.1
2023/03/09 11:40:00,19.4,11.7
2023/03/09 11:50:00,19.5,12.0
2023/03/09 12:00:00,19.5,12.0
2023/03/09 12:10:00,19.5,12.1
2023/03/09 12:20:00,19.4,12.2
2023/03/09 12:30:00,19.1,11.8
2023/03/09 12:40:00,19.0,12.6
2023/03/09 12:50:00,18.0,12.7
2023/03/09 13:00:00,16.6,12.1
2023/03/09 13:10:00,16.1,11.2
2023/03/09 13:20:00,16.1,12.7
2023/03/09 13:30:00,15.7,12.5
2023/03/09 13:40:00,14.6,12.3
2023/03/09 13:50:00,13.3,12.4
2023/03/09 14:00:00,13.0,11.7
2023/03/09 14:10:00,12.8,11.8
2023/03/09 14:20:00,11.9,11.3
2023/03/09 14:30:00,11.8,11.7
2023/03/09 14:40:00,11.3,11.2
2023/03/09 14:50:00,10.7,10.7
2023/03/09 15:00:00,10.4, 9.3
2023/03/09 15:10:00,10.4, 9.4
2023/03/09 15:20:00,10.4, 8.5
2023/03/09 15:30:00,10.3, 8.5
2023/03/09 15:40:00,10.1, 7.8
2023/03/09 15:50:00,10.0, 7.6
2023/03/09 16:00:00, 9.7, 6.8
2023/03/09 16:10:00, 9.9, 7.3
2023/03/09 16:20:00, 9.7, 6.4
2023/03/09 16:30:00, 9.4, 6.1
2023/03/09 16:40:00, 9.4, 6.4
2023/03/09 16:50:00, 9.6, 6.2
2023/03/09 17:00:00, 9.4, 5.9
2023/03/09 17:10:00, 9.4, 6.0
2023/03/09 17:20:00, 9.2, 5.6
2023/03/09 17:30:00, 8.9, 5.7
2023/03/09 17:40:00, 8.8, 5.6
2023/03/09 17:50:00, 8.8, 5.5
2023/03/09 18:00:00, 8.6, 4.9
2023/03/09 18:10:00, 8.3, 4.3
2023/03/09 18:20:00, 8.2, 4.0
2023/03/09 18:30:00, 8.2, 4.3
2023/03/09 18:40:00, 8.3, 4.3
2023/03/09 18:50:00, 8.3, 4.2
2023/03/09 19:00:00, 8.4, 4.2
2023/03/09 19:10:00, 8.2, 4.0
2023/03/09 19:20:00, 8.1, 3.9
2023/03/09 19:30:00, 7.8, 3.7
2023/03/09 19:40:00, 7.7, 3.5
2023/03/09 19:50:00, 7.7, 4.0
2023/03/09 20:00:00, 7.7, 3.5
2023/03/09 20:10:00, 7.8, 3.7
2023/03/09 20:20:00, 7.7, 3.7
2023/03/09 20:30:00, 7.6, 3.5
2023/03/09 20:40:00, 7.8, 3.4
2023/03/09 20:50:00, 7.7, 3.4
2023/03/09 21:00:00, 7.6, 3.5
2023/03/09 21:10:00, 7.4, 3.6
2023/03/09 21:20:00, 7.4, 3.5
2023/03/09 21:30:00, 7.4, 3.5
2023/03/09 21:40:00, 7.2, 3.5
2023/03/09 21:50:00, 7.3, 3.5
2023/03/09 22:00:00, 6.9, 3.9
2023/03/09 22:10:00, 6.6, 3.8
2023/03/09 22:20:00, 6.6, 4.0
2023/03/09 22:30:00, 6.6, 3.9
2023/03/09 22:40:00, 6.3, 3.8
2023/03/09 22:50:00, 6.1, 3.6
2023/03/09 23:00:00, 5.9, 3.8
2023/03/09 23:10:00, 5.7, 3.5
2023/03/09 23:20:00, 5.9, 3.7
2023/03/09 23:30:00, 5.8, 3.3
2023/03/09 23:40:00, 5.8, 3.9
2023/03/09 23:50:00, 5.3, 3.7
